COSMOS 1199

Satellite information

Favourite Embed

Satellite Type and Status

PAYLOADIN ORBIT

Key statistics

Satellite COSMOS 1199 at a glance.

Uptime

16436

Days in orbit

Revolutions

≈ 12.4

Per day

Orbit

LEO

Low Earth Orbit

Inclination

74.0

Latest

Satellite identification and parameters

Extended collection of information and parameters for COSMOS 1199.

Object identification

Identified? True

Debris? False

Object name: COSMOS 1199

International designator: 1980-058H

Object number (NORAD): 11882

Object ID (CCSDS): 11882

Country: COMMONWEALTH OF INDEPENDENT STATES (CIS)

Current information (Y/N): Y

RCS size: MEDIUM

Orbital parameters

Period: 116.017 minutes

Inclination: 74.0183 deg

SMA: 7879.654 km

Apoapsis: 1530.067 km

Periapsis: 1472.972 km

RAAN: 50.3384 deg

Eccentricy: 0.003623

Argument of periapsis: 101.9085 deg

Mean anomaly: 270.3518 deg

Mean motion: 12.41200664 rev/day

Mean motion (dot): 0.00000004 rev/day2

B* drag term: 0.00014551 1/REarth

Two-line elements (TLE)

Creation date: July 9, 2025, 2:22 a.m.

Reference frame: TEME

Reference center: EARTH

Epoch: July 8, 2025, 8:14 p.m. UTC

TLE line 0: 0 COSMOS 1199

TLE line 1: 1 11882U 80058H 25189.84350759 .00000004 00000-0 14551-3 0 9990

TLE line 2: 2 11882 74.0183 50.3384 0036230 101.9085 270.3518 12.41200664 38830

Live tracking on map

Real-time ground track for satellite COSMOS 1199.

In-orbit conjunctions

There are no conjunctions computed for COSMOS 1199, at the moment. Check back to stay up to date, as we update our databases every day.

Go to all conjunctions

Associated space launch

Optical film-return reconnaissance satellite

COSMOS 1199 was lifted into orbit during the mission ‘Soyuz U | Zenit-6U 22’, on board a Soyuz U space rocket.

The launch took place on July 9, 1980, 12:40 p.m. from 41/1.

For more information about the launch, click the button.

Launch to space Soyuz U | Zenit-6U 22
Soyuz U | Zenit-6U 22

Agency: N/A

Status: Launch Successful

Launch date: July 9, 1980, 12:40 p.m. UTC

Rocket: Soyuz U

Launch pad: 41/1

Location: Plesetsk Cosmodrome, Russian Federation

...

Latest news about this satellite

There are no fresh news available about this satellite. Check back as we update our databases every day.


Newsletter sign-up

Weekly statistics, charts and insights to help you stay on top of the space industry.